Year,Month,Day,Hour,Minute,Value (Times are PST for temperature in C)
2019,03,05,00,00,-2.30
2019,03,05,00,01,-2.30
2019,03,05,00,02,-2.30
2019,03,05,00,03,-2.30
2019,03,05,00,04,-2.30
2019,03,05,00,05,-2.30
2019,03,05,00,06,-2.30
2019,03,05,00,07,-2.30
2019,03,05,00,08,-2.30
2019,03,05,00,09,-2.20
2019,03,05,00,10,-2.20
2019,03,05,00,11,-2.20
2019,03,05,00,12,-2.20
2019,03,05,00,13,-2.20
2019,03,05,00,14,-2.20
2019,03,05,00,15,-2.20
2019,03,05,00,16,-2.20
2019,03,05,00,17,-2.20
2019,03,05,00,18,-2.20
2019,03,05,00,19,-2.20
2019,03,05,00,20,-2.20
2019,03,05,00,21,-2.20
2019,03,05,00,22,-2.20
2019,03,05,00,23,-2.20
2019,03,05,00,24,-2.20
2019,03,05,00,25,-2.20
2019,03,05,00,26,-2.20
2019,03,05,00,27,-2.20
2019,03,05,00,28,-2.20
2019,03,05,00,29,-2.20
2019,03,05,00,30,-2.10
2019,03,05,00,31,-2.10
2019,03,05,00,32,-2.10
2019,03,05,00,33,-2.10
2019,03,05,00,34,-2.10
2019,03,05,00,35,-2.10
2019,03,05,00,36,-2.00
2019,03,05,00,37,-2.00
2019,03,05,00,38,-2.00
2019,03,05,00,39,-2.00
2019,03,05,00,40,-2.00
2019,03,05,00,41,-2.10
2019,03,05,00,42,-2.10
2019,03,05,00,43,-2.10
2019,03,05,00,44,-2.10
2019,03,05,00,45,-2.10
2019,03,05,00,46,-2.10
2019,03,05,00,47,-2.10
2019,03,05,00,48,-2.10
2019,03,05,00,49,-2.10
2019,03,05,00,50,-2.10
2019,03,05,00,51,-2.10
2019,03,05,00,52,-2.10
2019,03,05,00,53,-2.10
2019,03,05,00,54,-2.10
2019,03,05,00,55,-2.10
2019,03,05,00,56,-2.10
2019,03,05,00,57,-2.10
2019,03,05,00,58,-2.00
2019,03,05,00,59,-2.00
2019,03,05,01,00,-2.00
2019,03,05,01,01,-2.10
2019,03,05,01,02,-2.10
2019,03,05,01,03,-2.10
2019,03,05,01,04,-2.10
2019,03,05,01,05,-2.10
2019,03,05,01,06,-2.10
2019,03,05,01,07,-2.10
2019,03,05,01,08,-2.10
2019,03,05,01,09,-2.10
2019,03,05,01,10,-2.10
2019,03,05,01,11,-2.10
2019,03,05,01,12,-2.10
2019,03,05,01,13,-2.00
2019,03,05,01,14,-2.00
2019,03,05,01,15,-2.00
2019,03,05,01,16,-2.00
2019,03,05,01,17,-2.00
2019,03,05,01,18,-2.00
2019,03,05,01,19,-2.00
2019,03,05,01,20,-1.90
2019,03,05,01,21,-1.90
2019,03,05,01,22,-1.90
2019,03,05,01,23,-1.90
2019,03,05,01,24,-1.90
2019,03,05,01,25,-1.90
2019,03,05,01,26,-2.00
2019,03,05,01,27,-2.00
2019,03,05,01,28,-2.00
2019,03,05,01,29,-2.00
2019,03,05,01,30,-2.00
2019,03,05,01,31,-2.00
2019,03,05,01,32,-2.00
2019,03,05,01,33,-2.00
2019,03,05,01,34,-2.00
2019,03,05,01,35,-2.10
2019,03,05,01,36,-2.10
2019,03,05,01,37,-2.10
2019,03,05,01,38,-2.10
2019,03,05,01,39,-2.10
2019,03,05,01,40,-2.10
2019,03,05,01,41,-2.10
2019,03,05,01,42,-2.10
2019,03,05,01,43,-2.10
2019,03,05,01,44,-2.10
2019,03,05,01,45,-2.10
2019,03,05,01,46,-2.10
2019,03,05,01,47,-2.10
2019,03,05,01,48,-2.10
2019,03,05,01,49,-2.10
2019,03,05,01,50,-2.10
2019,03,05,01,51,-2.10
2019,03,05,01,52,-2.00
2019,03,05,01,53,-2.00
2019,03,05,01,54,-2.00
2019,03,05,01,55,-2.00
2019,03,05,01,56,-2.00
2019,03,05,01,57,-2.00
2019,03,05,01,58,-2.00
2019,03,05,01,59,-2.00
2019,03,05,02,00,-2.00
2019,03,05,02,01,-2.00
2019,03,05,02,02,-1.90
2019,03,05,02,03,-2.00
2019,03,05,02,04,-2.00
2019,03,05,02,05,-2.00
2019,03,05,02,06,-2.00
2019,03,05,02,07,-2.00
2019,03,05,02,08,-2.00
2019,03,05,02,09,-2.00
2019,03,05,02,10,-2.00
2019,03,05,02,11,-2.00
2019,03,05,02,12,-2.00
2019,03,05,02,13,-1.90
2019,03,05,02,14,-1.90
2019,03,05,02,15,-1.90
2019,03,05,02,16,-1.90
2019,03,05,02,17,-1.90
2019,03,05,02,18,-1.90
2019,03,05,02,19,-1.90
2019,03,05,02,20,-1.90
2019,03,05,02,21,-1.90
2019,03,05,02,22,-1.90
2019,03,05,02,23,-1.90
2019,03,05,02,24,-1.80
2019,03,05,02,25,-1.90
2019,03,05,02,26,-1.90
2019,03,05,02,27,-1.80
2019,03,05,02,28,-1.80
2019,03,05,02,29,-1.80
2019,03,05,02,30,-1.80
2019,03,05,02,31,-1.80
2019,03,05,02,32,-1.80
2019,03,05,02,33,-1.80
2019,03,05,02,34,-1.80
2019,03,05,02,35,-1.80
2019,03,05,02,36,-1.80
2019,03,05,02,37,-1.70
2019,03,05,02,38,-1.70
2019,03,05,02,39,-1.70
2019,03,05,02,40,-1.70
2019,03,05,02,41,-1.70
2019,03,05,02,42,-1.70
2019,03,05,02,43,-1.70
2019,03,05,02,44,-1.60
2019,03,05,02,45,-1.60
2019,03,05,02,46,-1.60
2019,03,05,02,47,-1.50
2019,03,05,02,48,-1.50
2019,03,05,02,49,-1.40
2019,03,05,02,50,-1.40
2019,03,05,02,51,-1.40
2019,03,05,02,52,-1.40
2019,03,05,02,53,-1.30
2019,03,05,02,54,-1.30
2019,03,05,02,55,-1.30
2019,03,05,02,56,-1.30
2019,03,05,02,57,-1.30
2019,03,05,02,58,-1.30
2019,03,05,02,59,-1.30
2019,03,05,03,00,-1.30
2019,03,05,03,01,-1.20
2019,03,05,03,02,-1.20
2019,03,05,03,03,-1.20
2019,03,05,03,04,-1.20
2019,03,05,03,05,-1.20
2019,03,05,03,06,-1.30
2019,03,05,03,07,-1.30
2019,03,05,03,08,-1.30
2019,03,05,03,09,-1.30
2019,03,05,03,10,-1.30
2019,03,05,03,11,-1.20
2019,03,05,03,12,-1.20
2019,03,05,03,13,-1.20
2019,03,05,03,14,-1.10
2019,03,05,03,15,-1.20
2019,03,05,03,16,-1.20
2019,03,05,03,17,-1.20
2019,03,05,03,18,-1.20
2019,03,05,03,19,-1.30
2019,03,05,03,20,-1.30
2019,03,05,03,21,-1.30
2019,03,05,03,22,-1.30
2019,03,05,03,23,-1.40
2019,03,05,03,24,-1.40
2019,03,05,03,25,-1.40
2019,03,05,03,26,-1.50
2019,03,05,03,27,-1.50
2019,03,05,03,28,-1.50
2019,03,05,03,29,-1.50
2019,03,05,03,30,-1.50
2019,03,05,03,31,-1.50
2019,03,05,03,32,-1.40
2019,03,05,03,33,-1.40
2019,03,05,03,34,-1.40
2019,03,05,03,35,-1.40
2019,03,05,03,36,-1.40
2019,03,05,03,37,-1.40
2019,03,05,03,38,-1.40
2019,03,05,03,39,-1.40
2019,03,05,03,40,-1.40
2019,03,05,03,41,-1.40
2019,03,05,03,42,-1.30
2019,03,05,03,43,-1.30
2019,03,05,03,44,-1.30
2019,03,05,03,45,-1.30
2019,03,05,03,46,-1.40
2019,03,05,03,47,-1.40
2019,03,05,03,48,-1.40
2019,03,05,03,49,-1.50
2019,03,05,03,50,-1.50
2019,03,05,03,51,-1.50
2019,03,05,03,52,-1.60
2019,03,05,03,53,-1.60
2019,03,05,03,54,-1.60
2019,03,05,03,55,-1.60
2019,03,05,03,56,-1.70
2019,03,05,03,57,-1.70
2019,03,05,03,58,-1.70
2019,03,05,03,59,-1.70
2019,03,05,04,00,-1.70
2019,03,05,04,01,-1.70
2019,03,05,04,02,-1.70
2019,03,05,04,03,-1.70
2019,03,05,04,04,-1.70
2019,03,05,04,05,-1.70
2019,03,05,04,06,-1.70
2019,03,05,04,07,-1.70
2019,03,05,04,08,-1.70
2019,03,05,04,09,-1.70
2019,03,05,04,10,-1.70
2019,03,05,04,11,-1.80
2019,03,05,04,12,-1.80
2019,03,05,04,13,-1.80
2019,03,05,04,14,-1.80
2019,03,05,04,15,-1.80
2019,03,05,04,16,-1.80
2019,03,05,04,17,-1.80
2019,03,05,04,18,-1.90
2019,03,05,04,19,-1.90
2019,03,05,04,20,-1.90
2019,03,05,04,21,-1.90
2019,03,05,04,22,-2.00
2019,03,05,04,23,-2.00
2019,03,05,04,24,-2.00
2019,03,05,04,25,-2.00
2019,03,05,04,26,-2.10
2019,03,05,04,27,-2.10
2019,03,05,04,28,-2.10
2019,03,05,04,29,-2.10
2019,03,05,04,30,-2.10
2019,03,05,04,31,-2.10
2019,03,05,04,32,-2.10
2019,03,05,04,33,-2.10
2019,03,05,04,34,-2.10
2019,03,05,04,35,-2.20
2019,03,05,04,36,-2.20
2019,03,05,04,37,-2.20
2019,03,05,04,38,-2.20
2019,03,05,04,39,-2.20
2019,03,05,04,40,-2.20
2019,03,05,04,41,-2.20
2019,03,05,04,42,-2.20
2019,03,05,04,43,-2.20
2019,03,05,04,44,-2.20
2019,03,05,04,45,-2.20
2019,03,05,04,46,-2.20
2019,03,05,04,47,-2.20
2019,03,05,04,48,-2.20
2019,03,05,04,49,-2.20
2019,03,05,04,50,-2.20
2019,03,05,04,51,-2.20
2019,03,05,04,52,-2.20
2019,03,05,04,53,-2.20
2019,03,05,04,54,-2.20
2019,03,05,04,55,-2.30
2019,03,05,04,56,-2.30
2019,03,05,04,57,-2.30
2019,03,05,04,58,-2.30
2019,03,05,04,59,-2.30
2019,03,05,05,00,-2.30
2019,03,05,05,01,-2.30
2019,03,05,05,02,-2.30
2019,03,05,05,03,-2.30
2019,03,05,05,04,-2.30
2019,03,05,05,05,-2.30
2019,03,05,05,06,-2.30
2019,03,05,05,07,-2.30
2019,03,05,05,08,-2.30
2019,03,05,05,09,-2.40
2019,03,05,05,10,-2.40
2019,03,05,05,11,-2.50
2019,03,05,05,12,-2.50
2019,03,05,05,13,-2.60
2019,03,05,05,14,-2.60
2019,03,05,05,15,-2.60
2019,03,05,05,16,-2.60
2019,03,05,05,17,-2.60
2019,03,05,05,18,-2.60
2019,03,05,05,19,-2.50
2019,03,05,05,20,-2.50
2019,03,05,05,21,-2.50
2019,03,05,05,22,-2.40
2019,03,05,05,23,-2.40
2019,03,05,05,24,-2.50
2019,03,05,05,25,-2.50
2019,03,05,05,26,-2.40
2019,03,05,05,27,-2.40
2019,03,05,05,28,-2.40
2019,03,05,05,29,-2.40
2019,03,05,05,30,-2.40
2019,03,05,05,31,-2.40
2019,03,05,05,32,-2.40
2019,03,05,05,33,-2.40
2019,03,05,05,34,-2.40
2019,03,05,05,35,-2.40
2019,03,05,05,36,-2.40
2019,03,05,05,37,-2.40
2019,03,05,05,38,-2.40
2019,03,05,05,39,-2.40
2019,03,05,05,40,-2.40
2019,03,05,05,41,-2.40
2019,03,05,05,42,-2.40
2019,03,05,05,43,-2.40
2019,03,05,05,44,-2.40
2019,03,05,05,45,-2.40
2019,03,05,05,46,-2.40
2019,03,05,05,47,-2.50
2019,03,05,05,48,-2.50
2019,03,05,05,49,-2.50
2019,03,05,05,50,-2.50
2019,03,05,05,51,-2.50
2019,03,05,05,52,-2.50
2019,03,05,05,53,-2.50
2019,03,05,05,54,-2.60
2019,03,05,05,55,-2.60
2019,03,05,05,56,-2.60
2019,03,05,05,57,-2.60
2019,03,05,05,58,-2.60
2019,03,05,05,59,-2.60
2019,03,05,06,00,-2.70
2019,03,05,06,01,-2.70
2019,03,05,06,02,-2.70
2019,03,05,06,03,-2.70
2019,03,05,06,04,-2.70
2019,03,05,06,05,-2.70
2019,03,05,06,06,-2.70
2019,03,05,06,07,-2.70
2019,03,05,06,08,-2.70
2019,03,05,06,09,-2.60
2019,03,05,06,10,-2.60
2019,03,05,06,11,-2.60
2019,03,05,06,12,-2.60
2019,03,05,06,13,-2.60
2019,03,05,06,14,-2.60
2019,03,05,06,15,-2.60
2019,03,05,06,16,-2.60
2019,03,05,06,17,-2.60
2019,03,05,06,18,-2.60
2019,03,05,06,19,-2.60
2019,03,05,06,20,-2.60
2019,03,05,06,21,-2.60
2019,03,05,06,22,-2.60
2019,03,05,06,23,-2.50
2019,03,05,06,24,-2.50
2019,03,05,06,25,-2.50
2019,03,05,06,26,-2.40
2019,03,05,06,27,-2.40
2019,03,05,06,28,-2.40
2019,03,05,06,29,-2.40
2019,03,05,06,30,-2.40
2019,03,05,06,31,-2.40
2019,03,05,06,32,-2.30
2019,03,05,06,33,-2.30
2019,03,05,06,34,-2.30
2019,03,05,06,35,-2.20
2019,03,05,06,36,-2.20
2019,03,05,06,37,-2.30
2019,03,05,06,38,-2.30
2019,03,05,06,39,-2.30
2019,03,05,06,40,-2.30
2019,03,05,06,41,-2.30
2019,03,05,06,42,-2.40
2019,03,05,06,43,-2.40
2019,03,05,06,44,-2.40
2019,03,05,06,45,-2.40
2019,03,05,06,46,-2.50
2019,03,05,06,47,-2.50
2019,03,05,06,48,-2.50
2019,03,05,06,49,-2.50
2019,03,05,06,50,-2.50
2019,03,05,06,51,-2.50
2019,03,05,06,52,-2.50
2019,03,05,06,53,-2.50
2019,03,05,06,54,-2.50
2019,03,05,06,55,-2.50
2019,03,05,06,56,-2.50
2019,03,05,06,57,-2.50
2019,03,05,06,58,-2.40
2019,03,05,06,59,-2.40
2019,03,05,07,00,-2.40
2019,03,05,07,01,-2.40
2019,03,05,07,02,-2.40
2019,03,05,07,03,-2.40
2019,03,05,07,04,-2.40
2019,03,05,07,05,-2.40
2019,03,05,07,06,-2.40
2019,03,05,07,07,-2.40
2019,03,05,07,08,-2.50
2019,03,05,07,09,-2.50
2019,03,05,07,10,-2.50
2019,03,05,07,11,-2.50
2019,03,05,07,12,-2.50
2019,03,05,07,13,-2.50
2019,03,05,07,14,-2.50
2019,03,05,07,15,-2.60
2019,03,05,07,16,-2.60
2019,03,05,07,17,-2.60
2019,03,05,07,18,-2.60
2019,03,05,07,19,-2.60
2019,03,05,07,20,-2.60
2019,03,05,07,21,-2.60
2019,03,05,07,22,-2.60
2019,03,05,07,23,-2.60
2019,03,05,07,24,-2.60
2019,03,05,07,25,-2.60
2019,03,05,07,26,-2.60
2019,03,05,07,27,-2.60
2019,03,05,07,28,-2.60
2019,03,05,07,29,-2.60
2019,03,05,07,30,-2.60
2019,03,05,07,31,-2.60
2019,03,05,07,32,-2.60
2019,03,05,07,33,-2.60
2019,03,05,07,34,-2.50
2019,03,05,07,35,-2.60
2019,03,05,07,36,-2.60
2019,03,05,07,37,-2.50
2019,03,05,07,38,-2.50
2019,03,05,07,39,-2.50
2019,03,05,07,40,-2.50
2019,03,05,07,41,-2.40
2019,03,05,07,42,-2.40
2019,03,05,07,43,-2.30
2019,03,05,07,44,-2.30
2019,03,05,07,45,-2.20
2019,03,05,07,46,-2.20
2019,03,05,07,47,-2.10
2019,03,05,07,48,-2.00
2019,03,05,07,49,-2.00
2019,03,05,07,50,-1.90
2019,03,05,07,51,-1.90
2019,03,05,07,52,-1.90
2019,03,05,07,53,-1.80
2019,03,05,07,54,-1.80
2019,03,05,07,55,-1.70
2019,03,05,07,56,-1.70
2019,03,05,07,57,-1.60
2019,03,05,07,58,-1.50
2019,03,05,07,59,-1.50
2019,03,05,08,00,-1.40
2019,03,05,08,01,-1.30
2019,03,05,08,02,-1.30
2019,03,05,08,03,-1.20
2019,03,05,08,04,-1.20
2019,03,05,08,05,-1.20
2019,03,05,08,06,-1.10
2019,03,05,08,07,-1.10
2019,03,05,08,08,-1.00
2019,03,05,08,09,-1.00
2019,03,05,08,10,-0.90
2019,03,05,08,11,-0.90
2019,03,05,08,12,-0.80
2019,03,05,08,13,-0.80
2019,03,05,08,14,-0.80
2019,03,05,08,15,-0.80
2019,03,05,08,16,-0.70
2019,03,05,08,17,-0.70
2019,03,05,08,18,-0.70
2019,03,05,08,19,-0.70
2019,03,05,08,20,-0.60
2019,03,05,08,21,-0.60
2019,03,05,08,22,-0.50
2019,03,05,08,23,-0.50
2019,03,05,08,24,-0.40
2019,03,05,08,25,-0.30
2019,03,05,08,26,-0.20
2019,03,05,08,27,-0.10
2019,03,05,08,28,-0.10
2019,03,05,08,29,0.00
2019,03,05,08,30,0.10
2019,03,05,08,31,0.10
2019,03,05,08,32,0.20
2019,03,05,08,33,0.20
2019,03,05,08,34,0.30
2019,03,05,08,35,0.30
2019,03,05,08,36,0.30
2019,03,05,08,37,0.30
2019,03,05,08,38,0.30
2019,03,05,08,39,0.30
2019,03,05,08,40,0.30
2019,03,05,08,41,0.40
2019,03,05,08,42,0.40
2019,03,05,08,43,0.50
2019,03,05,08,44,0.50
2019,03,05,08,45,0.60
2019,03,05,08,46,0.60
2019,03,05,08,47,0.70
2019,03,05,08,48,0.70
2019,03,05,08,49,0.80
2019,03,05,08,50,0.90
2019,03,05,08,51,1.00
2019,03,05,08,52,1.00
2019,03,05,08,53,1.10
2019,03,05,08,54,1.20
2019,03,05,08,55,1.30
2019,03,05,08,56,1.30
2019,03,05,08,57,1.40
2019,03,05,08,58,1.50
2019,03,05,08,59,1.60
2019,03,05,09,00,1.70
2019,03,05,09,01,1.80
2019,03,05,09,02,1.80
2019,03,05,09,03,1.90
2019,03,05,09,04,1.90
2019,03,05,09,05,2.00
2019,03,05,09,06,2.00
2019,03,05,09,07,2.00
2019,03,05,09,08,2.00
2019,03,05,09,09,2.10
2019,03,05,09,10,2.10
2019,03,05,09,11,2.20
2019,03,05,09,12,2.30
2019,03,05,09,13,2.40
2019,03,05,09,14,2.40
2019,03,05,09,15,2.50
2019,03,05,09,16,2.50
2019,03,05,09,17,2.60
2019,03,05,09,18,2.60
2019,03,05,09,19,2.70
2019,03,05,09,20,2.70
2019,03,05,09,21,2.80
2019,03,05,09,22,2.80
2019,03,05,09,23,2.80
2019,03,05,09,24,2.80
2019,03,05,09,25,2.80
2019,03,05,09,26,2.80
2019,03,05,09,27,2.90
2019,03,05,09,28,3.00
2019,03,05,09,29,3.10
2019,03,05,09,30,3.20
2019,03,05,09,31,3.30
2019,03,05,09,32,3.30
2019,03,05,09,33,3.30
2019,03,05,09,34,3.30
2019,03,05,09,35,3.30
2019,03,05,09,36,3.30
2019,03,05,09,37,3.30
2019,03,05,09,38,3.30
2019,03,05,09,39,3.30
2019,03,05,09,40,3.40
2019,03,05,09,41,3.40
2019,03,05,09,42,3.50
2019,03,05,09,43,3.50
2019,03,05,09,44,3.50
2019,03,05,09,45,3.50
2019,03,05,09,46,3.60
2019,03,05,09,47,3.60
2019,03,05,09,48,3.60
2019,03,05,09,49,3.60
2019,03,05,09,50,3.60
2019,03,05,09,51,3.70
2019,03,05,09,52,3.80
2019,03,05,09,53,3.90
2019,03,05,09,54,4.00
2019,03,05,09,55,4.20
2019,03,05,09,56,4.20
2019,03,05,09,57,4.30
2019,03,05,09,58,4.30
2019,03,05,09,59,4.40
2019,03,05,10,00,4.50
2019,03,05,10,01,4.50
2019,03,05,10,02,4.60
2019,03,05,10,03,4.70
2019,03,05,10,04,4.70
2019,03,05,10,05,4.70
2019,03,05,10,06,4.70
2019,03,05,10,07,4.80
2019,03,05,10,08,4.80
2019,03,05,10,09,4.80
2019,03,05,10,10,4.80
2019,03,05,10,11,4.90
2019,03,05,10,12,4.90
2019,03,05,10,13,5.00
2019,03,05,10,14,5.00
2019,03,05,10,15,5.00
2019,03,05,10,16,4.90
2019,03,05,10,17,4.80
2019,03,05,10,18,4.70
2019,03,05,10,19,4.70
2019,03,05,10,20,4.60
2019,03,05,10,21,4.50
2019,03,05,10,22,4.50
2019,03,05,10,23,4.40
2019,03,05,10,24,4.40
2019,03,05,10,25,4.40
2019,03,05,10,26,4.50
2019,03,05,10,27,4.50
2019,03,05,10,28,4.60
2019,03,05,10,29,4.60
2019,03,05,10,30,4.60
2019,03,05,10,31,4.70
2019,03,05,10,32,4.80
2019,03,05,10,33,4.90
2019,03,05,10,34,5.00
2019,03,05,10,35,5.00
2019,03,05,10,36,5.00
2019,03,05,10,37,5.10
2019,03,05,10,38,5.20
2019,03,05,10,39,5.20
2019,03,05,10,40,5.30
2019,03,05,10,41,5.40
2019,03,05,10,42,5.50
2019,03,05,10,43,5.70
2019,03,05,10,44,5.90
2019,03,05,10,45,6.10
2019,03,05,10,46,6.20
2019,03,05,10,47,6.30
2019,03,05,10,48,6.30
2019,03,05,10,49,6.30
2019,03,05,10,50,6.30
2019,03,05,10,51,6.30
2019,03,05,10,52,6.30
2019,03,05,10,53,6.40
2019,03,05,10,54,6.30
2019,03,05,10,55,6.30
2019,03,05,10,56,6.30
2019,03,05,10,57,6.20
2019,03,05,10,58,6.20
2019,03,05,10,59,6.20
2019,03,05,11,00,6.20
2019,03,05,11,01,6.30
2019,03,05,11,02,6.30
2019,03,05,11,03,6.30
2019,03,05,11,04,6.30
2019,03,05,11,05,6.30
2019,03,05,11,06,6.40
2019,03,05,11,07,6.50
2019,03,05,11,08,6.50
2019,03,05,11,09,6.50
2019,03,05,11,10,6.50
2019,03,05,11,11,6.40
2019,03,05,11,12,6.40
2019,03,05,11,13,6.40
2019,03,05,11,14,6.50
2019,03,05,11,15,6.50
2019,03,05,11,16,6.60
2019,03,05,11,17,6.60
2019,03,05,11,18,6.70
2019,03,05,11,19,6.60
2019,03,05,11,20,6.60
2019,03,05,11,21,6.50
2019,03,05,11,22,6.40
2019,03,05,11,23,6.40
2019,03,05,11,24,6.50
2019,03,05,11,25,6.50
2019,03,05,11,26,6.50
2019,03,05,11,27,6.50
2019,03,05,11,28,6.60
2019,03,05,11,29,6.60
2019,03,05,11,30,6.60
2019,03,05,11,31,6.60
2019,03,05,11,32,6.70
2019,03,05,11,33,6.70
2019,03,05,11,34,6.70
2019,03,05,11,35,6.80
2019,03,05,11,36,6.80
2019,03,05,11,37,6.80
2019,03,05,11,38,6.80
2019,03,05,11,39,6.80
2019,03,05,11,40,6.80
2019,03,05,11,41,6.70
2019,03,05,11,42,6.60
2019,03,05,11,43,6.60
2019,03,05,11,44,6.60
2019,03,05,11,45,6.60
2019,03,05,11,46,6.70
2019,03,05,11,47,6.80
2019,03,05,11,48,6.80
2019,03,05,11,49,6.90
2019,03,05,11,50,7.00
2019,03,05,11,51,7.10
2019,03,05,11,52,7.20
2019,03,05,11,53,7.20
2019,03,05,11,54,7.20
2019,03,05,11,55,7.20
2019,03,05,11,56,7.10
2019,03,05,11,57,7.10
2019,03,05,11,58,7.10
2019,03,05,11,59,7.20
2019,03,05,12,00,7.20
2019,03,05,12,01,7.20
2019,03,05,12,02,7.20
2019,03,05,12,03,7.20
2019,03,05,12,04,7.20
2019,03,05,12,05,7.10
2019,03,05,12,06,7.10
2019,03,05,12,07,7.20
2019,03,05,12,08,7.20
2019,03,05,12,09,7.20
2019,03,05,12,10,7.30
2019,03,05,12,11,7.30
2019,03,05,12,12,7.30
2019,03,05,12,13,7.30
2019,03,05,12,14,7.30
2019,03,05,12,15,7.30
2019,03,05,12,16,7.30
2019,03,05,12,17,7.30
2019,03,05,12,18,7.40
2019,03,05,12,19,7.40
2019,03,05,12,20,7.40
2019,03,05,12,21,7.50
2019,03,05,12,22,7.50
2019,03,05,12,23,7.50
2019,03,05,12,24,7.60
2019,03,05,12,25,7.70
2019,03,05,12,26,7.80
2019,03,05,12,27,7.80
2019,03,05,12,28,7.80
2019,03,05,12,29,7.80
2019,03,05,12,30,7.80
2019,03,05,12,31,7.80
2019,03,05,12,32,7.80
2019,03,05,12,33,7.80
2019,03,05,12,34,7.80
2019,03,05,12,35,7.90
2019,03,05,12,36,7.90
2019,03,05,12,37,8.00
2019,03,05,12,38,8.10
2019,03,05,12,39,8.10
2019,03,05,12,40,8.20
2019,03,05,12,41,8.20
2019,03,05,12,42,8.20
2019,03,05,12,43,8.20
2019,03,05,12,44,8.20
2019,03,05,12,45,8.30
2019,03,05,12,46,8.20
2019,03,05,12,47,8.20
2019,03,05,12,48,8.10
2019,03,05,12,49,8.10
2019,03,05,12,50,8.00
2019,03,05,12,51,7.90
2019,03,05,12,52,7.80
2019,03,05,12,53,7.80
2019,03,05,12,54,7.80
2019,03,05,12,55,7.80
2019,03,05,12,56,7.80
2019,03,05,12,57,7.80
2019,03,05,12,58,7.80
2019,03,05,12,59,7.70
2019,03,05,13,00,7.70
2019,03,05,13,01,7.70
2019,03,05,13,02,7.80
2019,03,05,13,03,7.90
2019,03,05,13,04,7.90
2019,03,05,13,05,8.00
2019,03,05,13,06,8.00
2019,03,05,13,07,8.00
2019,03,05,13,08,8.00
2019,03,05,13,09,8.00
2019,03,05,13,10,7.90
2019,03,05,13,11,7.90
2019,03,05,13,12,7.90
2019,03,05,13,13,8.00
2019,03,05,13,14,8.10
2019,03,05,13,15,8.20
2019,03,05,13,16,8.30
2019,03,05,13,17,8.30
2019,03,05,13,18,8.30
2019,03,05,13,19,8.20
2019,03,05,13,20,8.10
2019,03,05,13,21,8.00
2019,03,05,13,22,7.90
2019,03,05,13,23,7.90
2019,03,05,13,24,7.90
2019,03,05,13,25,8.00
2019,03,05,13,26,8.00
2019,03,05,13,27,8.10
2019,03,05,13,28,8.10
2019,03,05,13,29,8.10
2019,03,05,13,30,8.10
2019,03,05,13,31,8.10
2019,03,05,13,32,8.10
2019,03,05,13,33,8.10
2019,03,05,13,34,8.20
2019,03,05,13,35,8.20
2019,03,05,13,36,8.20
2019,03,05,13,37,8.30
2019,03,05,13,38,8.30
2019,03,05,13,39,8.40
2019,03,05,13,40,8.50
2019,03,05,13,41,8.60
2019,03,05,13,42,8.50
2019,03,05,13,43,8.40
2019,03,05,13,44,8.40
2019,03,05,13,45,8.40
2019,03,05,13,46,8.50
2019,03,05,13,47,8.50
2019,03,05,13,48,8.60
2019,03,05,13,49,8.70
2019,03,05,13,50,8.70
2019,03,05,13,51,8.80
2019,03,05,13,52,8.80
2019,03,05,13,53,8.70
2019,03,05,13,54,8.70
2019,03,05,13,55,8.70
2019,03,05,13,56,8.70
2019,03,05,13,57,8.70
2019,03,05,13,58,8.80
2019,03,05,13,59,8.80
2019,03,05,14,00,8.80
2019,03,05,14,01,8.60
2019,03,05,14,02,8.50
2019,03,05,14,03,8.30
2019,03,05,14,04,8.30
2019,03,05,14,05,8.30
2019,03,05,14,06,8.30
2019,03,05,14,07,8.20
2019,03,05,14,08,8.20
2019,03,05,14,09,8.10
2019,03,05,14,10,8.20
2019,03,05,14,11,8.30
2019,03,05,14,12,8.40
2019,03,05,14,13,8.50
2019,03,05,14,14,8.50
2019,03,05,14,15,8.40
2019,03,05,14,16,8.30
2019,03,05,14,17,8.10
2019,03,05,14,18,7.90
2019,03,05,14,19,7.70
2019,03,05,14,20,7.70
2019,03,05,14,21,7.60
2019,03,05,14,22,7.60
2019,03,05,14,23,7.50
2019,03,05,14,24,7.40
2019,03,05,14,25,7.20
2019,03,05,14,26,7.30
2019,03,05,14,27,7.30
2019,03,05,14,28,7.40
2019,03,05,14,29,7.50
2019,03,05,14,30,7.60
2019,03,05,14,31,7.60
2019,03,05,14,32,7.60
2019,03,05,14,33,7.50
2019,03,05,14,34,7.40
2019,03,05,14,35,7.30
2019,03,05,14,36,7.20
2019,03,05,14,37,7.20
2019,03,05,14,38,7.20
2019,03,05,14,39,7.30
2019,03,05,14,40,7.30
2019,03,05,14,41,7.40
2019,03,05,14,42,7.30
2019,03,05,14,43,7.30
2019,03,05,14,44,7.20
2019,03,05,14,45,7.20
2019,03,05,14,46,7.20
2019,03,05,14,47,7.20
2019,03,05,14,48,7.10
2019,03,05,14,49,7.10
2019,03,05,14,50,7.10
2019,03,05,14,51,7.10
2019,03,05,14,52,7.10
2019,03,05,14,53,7.10
2019,03,05,14,54,7.10
2019,03,05,14,55,7.10
2019,03,05,14,56,7.20
2019,03,05,14,57,7.10
2019,03,05,14,58,7.10
2019,03,05,14,59,7.10
2019,03,05,15,00,7.10
2019,03,05,15,01,7.10
2019,03,05,15,02,7.20
2019,03,05,15,03,7.20
2019,03,05,15,04,7.20
2019,03,05,15,05,7.10
2019,03,05,15,06,7.10
2019,03,05,15,07,7.10
2019,03,05,15,08,7.10
2019,03,05,15,09,7.10
2019,03,05,15,10,7.10
2019,03,05,15,11,7.20
2019,03,05,15,12,7.20
2019,03,05,15,13,7.30
2019,03,05,15,14,7.30
2019,03,05,15,15,7.30
2019,03,05,15,16,7.30
2019,03,05,15,17,7.30
2019,03,05,15,18,7.30
2019,03,05,15,19,7.30
2019,03,05,15,20,7.20
2019,03,05,15,21,7.10
2019,03,05,15,22,7.10
2019,03,05,15,23,7.10
2019,03,05,15,24,7.10
2019,03,05,15,25,7.20
2019,03,05,15,26,7.10
2019,03,05,15,27,7.10
2019,03,05,15,28,7.00
2019,03,05,15,29,7.00
2019,03,05,15,30,6.90
2019,03,05,15,31,6.90
2019,03,05,15,32,6.90
2019,03,05,15,33,6.90
2019,03,05,15,34,6.90
2019,03,05,15,35,7.00
2019,03,05,15,36,7.00
2019,03,05,15,37,7.00
2019,03,05,15,38,6.90
2019,03,05,15,39,6.90
2019,03,05,15,40,6.80
2019,03,05,15,41,6.80
2019,03,05,15,42,6.80
2019,03,05,15,43,6.80
2019,03,05,15,44,6.80
2019,03,05,15,45,6.80
2019,03,05,15,46,6.80
2019,03,05,15,47,6.80
2019,03,05,15,48,6.70
2019,03,05,15,49,6.70
2019,03,05,15,50,6.80
2019,03,05,15,51,6.80
2019,03,05,15,52,6.80
2019,03,05,15,53,6.80
2019,03,05,15,54,6.90
2019,03,05,15,55,6.90
2019,03,05,15,56,7.00
2019,03,05,15,57,7.00
2019,03,05,15,58,7.10
2019,03,05,15,59,7.00
2019,03,05,16,00,7.00
2019,03,05,16,01,6.90
2019,03,05,16,02,6.90
2019,03,05,16,03,6.90
2019,03,05,16,04,6.90
2019,03,05,16,05,6.90
2019,03,05,16,06,6.90
2019,03,05,16,07,6.90
2019,03,05,16,08,6.90
2019,03,05,16,09,6.90
2019,03,05,16,10,6.90
2019,03,05,16,11,6.90
2019,03,05,16,12,6.80
2019,03,05,16,13,6.80
2019,03,05,16,14,6.80
2019,03,05,16,15,6.70
2019,03,05,16,16,6.70
2019,03,05,16,17,6.70
2019,03,05,16,18,6.70
2019,03,05,16,19,6.70
2019,03,05,16,20,6.70
2019,03,05,16,21,6.70
2019,03,05,16,22,6.60
2019,03,05,16,23,6.50
2019,03,05,16,24,6.50
2019,03,05,16,25,6.50
2019,03,05,16,26,6.50
2019,03,05,16,27,6.50
2019,03,05,16,28,6.40
2019,03,05,16,29,6.40
2019,03,05,16,30,6.40
2019,03,05,16,31,6.40
2019,03,05,16,32,6.40
2019,03,05,16,33,6.30
2019,03,05,16,34,6.40
2019,03,05,16,35,6.30
2019,03,05,16,36,6.30
2019,03,05,16,37,6.30
2019,03,05,16,38,6.30
2019,03,05,16,39,6.30
2019,03,05,16,40,6.20
2019,03,05,16,41,6.20
2019,03,05,16,42,6.20
2019,03,05,16,43,6.20
2019,03,05,16,44,6.10
2019,03,05,16,45,6.10
2019,03,05,16,46,6.20
2019,03,05,16,47,6.10
2019,03,05,16,48,6.10
2019,03,05,16,49,6.10
2019,03,05,16,50,6.10
2019,03,05,16,51,6.10
2019,03,05,16,52,6.10
2019,03,05,16,53,6.10
2019,03,05,16,54,6.10
2019,03,05,16,55,6.10
2019,03,05,16,56,6.00
2019,03,05,16,57,6.00
2019,03,05,16,58,5.90
2019,03,05,16,59,5.90
2019,03,05,17,00,5.80
2019,03,05,17,01,5.80
2019,03,05,17,02,5.80
2019,03,05,17,03,5.80
2019,03,05,17,04,5.80
2019,03,05,17,05,5.80
2019,03,05,17,06,5.80
2019,03,05,17,07,5.80
2019,03,05,17,08,5.80
2019,03,05,17,09,5.80
2019,03,05,17,10,5.80
2019,03,05,17,11,5.80
2019,03,05,17,12,5.80
2019,03,05,17,13,5.80
2019,03,05,17,14,5.80
2019,03,05,17,15,5.80
2019,03,05,17,16,5.80
2019,03,05,17,17,5.70
2019,03,05,17,18,5.70
2019,03,05,17,19,5.70
2019,03,05,17,20,5.70
2019,03,05,17,21,5.60
2019,03,05,17,22,5.60
2019,03,05,17,23,5.60
2019,03,05,17,24,5.60
2019,03,05,17,25,5.60
2019,03,05,17,26,5.60
2019,03,05,17,27,5.60
2019,03,05,17,28,5.50
2019,03,05,17,29,5.50
2019,03,05,17,30,5.40
2019,03,05,17,31,5.30
2019,03,05,17,32,5.30
2019,03,05,17,33,5.20
2019,03,05,17,34,5.20
2019,03,05,17,35,5.10
2019,03,05,17,36,5.10
2019,03,05,17,37,5.10
2019,03,05,17,38,5.00
2019,03,05,17,39,5.00
2019,03,05,17,40,5.00
2019,03,05,17,41,4.90
2019,03,05,17,42,4.90
2019,03,05,17,43,4.90